ATLAS CENTAUR 2 DEB, 698

Orbit data source: Space-Track

ATLAS CENTAUR 2 DEB, 698 is space debris in LEO originally from a launch on Wed, 27 Nov 1963 UTC launched from the Air Force Eastern Test Range (AFETR). Debris objects in space refer to the collection of defunct objects orbiting the Earth. Examples of debris include non-operational satellites, rocket bodies, and fragments generated from explosions, collisions, or faulty payload assembly.

Loading next visibility...
Identifier
698, 1963-047D
Orbit
LEO
Last TLE update
6 hours ago
Origin
Manufacturer
GD/Convair
Mission
Spacecraft
Bus & Motor
CENTAUR PART, Unknown motor
Mass
Unknown
Launch date (UTC)
1963-11-27 (62 years ago)
Launch vehicle
Unknown
Launch site
Air Force Eastern Test Range (AFETR)
Object type
Payload
Rocket body
Debris
Shape & HBR
Unknown
Radar Cross Section
0.300 m², Medium (>0.1 m² and < 1m²)

Expand to show TLE details & history

TLE from 6 hours ago
0 ATLAS CENTAUR 2 DEB
1   698U 63047D   25171.15643398  .00000913  00000-0  31714-3 0  9990
2   698  29.9236  71.3519 0531526 355.7709   3.8501 13.73510379 48794
Epoch: 2025-06-20T03:45Z
TLE epoch observation values (Epoch: 2025-06-20T03:45:15.895Z)
Latitude
-0.00003°
Longitude
106.42181°
Altitude
595.101 km
Speed
7.762 km/s
True Right ascension
04h 45m 24s
True Declination
0° 00' 00"
Sunlit
Object was in daylight at epoch
Visualization orbit readout
Latitude
19.72938°
Longitude
-113.18214°
Altitude
1,274.901 km
Speed
7.079 km/s
Apparent Right ascension
11h 58m 39s
Apparent Declination
-9° 18' 09"
Sunlit
Object is in daylight
Visualization observer readout
Local Sidereal Time
20:33:08
Azimuth
289.382° WNW
Elevation
-35.18°
Doppler factor
1
Orbital elements
Apogee altitude
1,382.441 km
Perigee altitude
599.088 km
Semi-major axis
7,368.902 km
Eccentricity
0.05315
Inclination
29.9236°
RAAN
71.3519°
Arg. of periapsis
355.7709°
True anomaly
Unknown
Mean anomaly
3.8501°
Eccentric anomaly
Unknown
Mean motion
3.43114 °/min
Orbital period
104.92 mins
BSTAR
0.00031714
Loading maneuver chart data...
Loading SW <> Apogee altitude chart data...

ATLAS CENTAUR 2 DEB Visibility forecast

Observer location: undefined°, undefined°

Span
Click to sort rows by Start time (UTC) header in descending order
Start Az.
Max El. time (UTC)
Max El. Az.
Max El.
End time (UTC)
End Az.
7 mins2025-06-20 21:27:11.694Z198.061° SSW2025-06-20 21:30:11.694Z157.302° SSE19.479°2025-06-20 21:34:11.694Z114.65° SE
9 mins2025-06-20 23:17:11.694Z226.443° WSW2025-06-20 23:20:11.694Z184.19° SSW28.385°2025-06-20 23:26:11.694Z116.771° SE
11 mins2025-06-21 01:07:11.694Z242.477° WSW2025-06-21 01:12:11.694Z183.327° SSW26.551°2025-06-21 01:18:11.694Z133.366° SE
7 mins2025-06-21 03:00:11.694Z227.124° WSW2025-06-21 03:03:11.694Z200.312° SSW16.626°2025-06-21 03:07:11.694Z169.703° S
|